Location: Härggis
(46.9540°N, 8.4897°E)
Time: 00:27:04
(UTC+00:00)

Daily predictions for brighter satellites

Satellite Brightness Start Highest point End
(mag) Time Altitude Azimuth Time Altitude Azimuth Time Altitude Azimuth
SL-16 R/B 3.8 00:02:19 18° SE 00:04:19 22° E 00:08:32 10° NE
Lacrosse 5 3.1 00:07:00 26° SE 00:07:15 27° SE 00:11:29 10° ENE
USA 306 2.7 00:07:12 67° SSE 00:07:22 69° SE 00:11:32 10° ENE
SL-16 R/B 4.1 00:02:09 10° ESE 00:07:28 31° ENE 00:12:50 10° N
Cosmos 1980 3.7 00:06:07 43° S 00:07:56 70° ESE 00:13:34 10° NNE
Cosmos 371 Rocket 3.2 00:06:52 52° SSW 00:08:03 83° ESE 00:12:56 10° NNE
Cosmos 1461 4.2 00:07:22 10° WNW 00:10:09 26° W 00:10:09 26° W
Cosmos 2333 Rocket 3.7 00:07:16 14° WSW 00:11:21 30° NW 00:16:21 10° NNE
USA 307 2.7 00:11:14 64° SSE 00:11:24 64° SE 00:15:33 10° ENE
Meteor 2-10 Rocket 3.9 00:08:36 10° N 00:14:15 66° ENE 00:16:52 31° SSE
ATLAS CENTAUR R/B 3.8 00:12:06 10° WNW 00:13:49 14° W 00:13:49 14° W
ASTEX 1 4.1 00:11:57 10° N 00:16:34 42° WNW 00:18:02 33° WSW
Cosmos 1709 Rocket 3.9 00:10:32 10° N 00:16:42 84° E 00:19:32 34° SSE
Cosmos 304 Rocket 3.9 00:15:45 47° SSE 00:16:57 64° ESE 00:21:44 10° NNE
Cosmos 2084 Rocket 4.2 00:19:40 33° ESE 00:19:40 33° ESE 00:22:56 10° ENE
USA 267 3.4 00:17:02 33° S 00:19:34 49° SW 00:25:53 10° WNW
Cosmos 2315 Rocket 4.1 00:18:32 35° S 00:21:25 75° E 00:27:49 10° NNE
NOSS 2-2 (C) 4.4 00:18:26 10° NW 00:23:33 59° SW 00:26:47 31° SSE
Cosmos 1674 Rocket 4.3 00:23:08 35° WSW 00:24:04 40° WNW 00:28:10 10° N
USA 229 DEB 4.0 00:19:17 10° NW 00:26:31 58° WSW 00:30:40 28° S
USA 229 4.0 00:19:23 10° NW 00:26:37 58° WSW 00:30:48 28° S
S3M 4.2 00:24:09 34° SW 00:26:56 62° WNW 00:33:15 10° N
Cosmos 2219 Rocket 3.7 00:26:27 14° WSW 00:30:26 28° NW 00:35:14 10° N
Cosmos 1455 4.2 00:28:34 10° NNE 00:31:35 23° ENE 00:33:50 14° ESE
Cosmos 2150 Rocket 4.3 00:32:32 35° SW 00:34:32 58° WNW 00:39:39 10° NNE
MOZ.5/SAFIR/RUBIN 5/SL-8 3.7 00:34:54 38° SSE 00:36:45 87° ENE 00:41:32 10° NNW
CZ-2D R/B 3.0 00:33:10 10° NNE 00:38:14 40° E 00:40:53 24° SSE
Cosmos 1455 Rocket 3.1 00:36:23 10° N 00:40:53 82° E 00:42:27 40° SSE
USA 308 2.8 00:40:45 42° WSW 00:42:05 82° NNW 00:46:17 10° ENE
Cosmos 1300 3.0 00:40:00 10° NNW 00:43:39 48° W 00:43:56 47° WSW
Cosmos 1125 Rocket 4.1 00:43:32 28° WSW 00:45:50 46° WNW 00:50:51 10° NNE
NOSS 0 Rocket 4.4 00:45:00 25° WSW 00:48:32 54° NW 00:54:40 10° NNE
Meteor 2-5 Rocket 3.8 00:50:14 31° S 00:53:05 76° E 00:58:46 10° NNE
SL-14 R/B 4.4 00:53:24 27° W 00:54:10 30° WNW 00:57:37 10° N
ERBS 2.4 00:55:13 52° WNW 00:55:35 57° NW 00:58:37 10° NE
CZ-4C R/B 3.9 00:50:47 10° WNW 00:57:03 29° WSW 00:59:24 25° SW
Cosmos 1975 Rocket 3.0 00:56:40 41° SSW 00:58:07 74° W 01:02:37 10° N
Cosmos 2237 Rocket 2.6 00:56:44 27° WSW 00:59:42 54° WNW 01:05:19 10° NNE
Cosmos 1025 Rocket 2.9 01:00:08 41° SSW 01:01:36 84° W 01:05:56 10° N
Resurs 1-4 Rocket 2.2 00:58:56 10° NNE 01:04:12 69° ESE 01:07:01 28° S
COSMOS 2428 4.5 00:59:51 10° W 01:04:21 24° NW 01:08:54 10° N
SME Rocket 3.2 01:03:28 38° SSW 01:04:52 61° WSW 01:09:58 10° NNW
USA 305 3.4 01:02:25 22° W 01:04:56 55° NNW 01:09:04 10° NE
Cosmos 332 Rocket 4.2 01:08:19 30° SW 01:10:25 51° WNW 01:15:07 10° NNE
CZ-4 R/B 3.8 01:06:18 10° NNE 01:10:59 77° ESE 01:13:13 31° S
Cosmos 1943 Rocket 2.1 01:08:47 10° NNW 01:14:29 80° WSW 01:19:23 14° SSE
Lacrosse 5 rocket 1.6 01:14:37 38° S 01:15:38 49° SE 01:19:34 10° ENE
IDEFIX/ARIANE 42P 3.6 01:12:10 10° NNE 01:17:09 41° E 01:21:05 15° SSE
GP-B 4.1 01:14:00 10° NNW 01:18:01 33° W 01:19:29 26° WSW
ADEOS II 2.7 01:12:56 10° NNE 01:18:03 49° E 01:21:39 19° SSE
UNK 3.8 01:15:35 19° SSE 01:18:55 77° ENE 01:23:32 10° N
Cosmos 614 Rocket 4.2 01:14:20 10° NNW 01:19:32 70° ENE 01:24:44 10° SSE
Cosmos 1953 4.5 01:18:11 10° NW 01:20:01 13° W 01:20:22 13° W
Cosmos 2297 3.7 01:14:30 10° NNW 01:20:18 90° SW 01:26:02 10° SSE
Thor Agena Rocket 4.1 01:16:24 10° N 01:21:30 49° WNW 01:24:18 25° SW
Cosmos 1703 4.4 01:24:41 17° SSE 01:27:17 38° E 01:30:57 10° NNE
Cosmos 1544 Rocket 3.6 01:22:59 10° NNW 01:27:21 63° W 01:29:32 28° SSW
Helios 1A 3.6 01:25:18 10° SSE 01:29:23 56° ENE 01:33:32 10° N
Cosmos 2278 Rocket 3.7 01:25:59 10° WNW 01:29:42 18° W 01:30:39 17° WSW
Cosmos 2251 Rocket 4.2 01:25:19 10° NNW 01:30:29 54° ENE 01:35:40 10° SE
Cosmos 2154 Rocket 4.1 01:25:16 10° N 01:31:39 83° E 01:37:43 11° S
EO 1 Del DPAF 3.9 01:30:55 10° NNE 01:34:17 44° E 01:36:19 21° SSE
MOS 1 Rocket 3.0 01:33:15 19° S 01:36:15 83° WSW 01:40:36 10° NNW
NPP 3.7 01:32:40 10° NNE 01:38:04 77° WNW 01:41:35 22° SSW
Cosmos 2369 Rocket 2.4 01:37:59 10° NNW 01:43:37 72° ENE 01:49:11 10° SE
Cosmos 1656 Rocket 4.1 01:41:37 10° NNW 01:47:00 61° ENE 01:52:22 10° SE
USA 306 4.1 01:43:15 10° W 01:47:11 39° NNW 01:51:07 10° NE
SL-16 R/B 2.4 01:44:11 22° SW 01:47:54 64° WNW 01:53:35 10° NNE
Meteor 1-28 Rocket 3.1 01:46:34 18° S 01:49:17 80° WSW 01:53:02 10° NNW
Lacrosse 5 2.0 01:46:10 19° WSW 01:49:52 71° NW 01:54:59 10° NE
SL-16 R/B 2.7 01:45:54 16° S 01:50:46 54° W 01:56:53 10° NNW
USA 307 4.0 01:47:14 10° W 01:51:12 40° NNW 01:55:11 10° NE
Cosmos 2074 Rocket 4.3 01:48:25 10° NNW 01:54:27 49° W 01:59:10 17° SSW
AQUA 4.1 01:56:54 10° N 02:01:35 57° WNW 02:04:57 18° SW
Cosmos 1455 3.3 02:03:54 10° NNW 02:07:01 26° W 02:08:35 19° SW
Cosmos 1603 4.3 02:06:20 11° S 02:11:34 52° ESE 02:17:04 10° NE
DNEPR-1 R/B 4.4 02:08:47 13° S 02:12:10 41° ESE 02:16:31 10° NE
COSMOS 2455 2.9 02:08:44 16° SW 02:13:35 76° NW 02:19:39 10° NNE
Cosmos 407 Rocket 3.8 02:09:09 10° NNW 02:14:29 72° ENE 02:19:44 10° SSE
Cosmos 2228 3.1 02:10:12 10° NNW 02:14:32 63° W 02:18:48 10° S
Cosmos 1271 Rocket 3.3 02:11:38 10° NNW 02:15:13 39° W 02:18:00 15° SSW
CZ-2D R/B 3.2 02:13:26 10° N 02:18:09 32° WNW 02:22:12 13° WSW
USA 308 4.4 02:18:17 10° WNW 02:22:07 34° N 02:25:58 10° NE
Cosmos 1140 Rocket 3.5 02:17:25 10° NNW 02:22:43 87° ENE 02:27:57 10° SSE
MSX 3.9 02:19:42 10° NNE 02:25:28 74° WNW 02:31:10 10° SSW
Cosmos 962 Rocket 4.5 02:21:38 10° NNW 02:27:43 69° W 02:33:46 10° S
Cosmos 292 Rocket 4.3 02:25:27 14° SW 02:29:23 46° WNW 02:34:01 10° NNE
Cosmos 2058 Rocket 3.8 02:25:08 10° N 02:29:28 56° ENE 02:33:45 10° SSE
Cosmos 2181 Rocket 4.2 02:27:38 10° S 02:33:51 77° E 02:40:01 10° NNE
NOSS 3-3 (A) 3.9 02:30:11 12° SSW 02:35:28 82° SE 02:42:02 10° NE
NOSS 3-3 (C) 3.9 02:30:17 12° SSW 02:35:35 81° SE 02:42:07 10° NE
Genesis I 3.2 02:36:46 10° NW 02:40:51 72° SW 02:44:47 10° SSE
Cosmos 1943 3.3 02:36:11 10° SSW 02:41:53 85° WNW 02:47:38 10° NNE
Resurs 1-4 Rocket 3.8 02:39:46 10° NNW 02:43:30 20° WNW 02:47:14 10° WSW
Meteor 2-1 Rocket 4.4 02:38:42 10° NNW 02:44:21 57° W 02:49:51 10° S
Cosmos 2237 Rocket 4.4 02:42:21 10° WNW 02:45:08 14° NW 02:47:57 10° N
DEBRIS 3.6 02:35:19 10° WNW 02:45:33 88° SSW 02:48:42 10° ESE
Helios 1B rocket 2.5 02:43:03 10° NNE 02:47:08 83° ESE 02:51:12 10° SSW
Cosmos 1328 4.0 02:44:53 10° SSW 02:48:45 55° WNW 02:52:42 10° N
Cosmos 1606 Rocket 4.1 02:46:16 10° NNW 02:50:23 40° W 02:54:28 10° SSW
ARIANE 5 R/B 3.5 02:47:25 10° NNE 02:52:19 47° E 02:57:06 10° S
Cosmos 1624 Rocket 4.3 02:47:38 10° S 02:52:54 70° ESE 02:58:12 10° NNE
Lacrosse 5 rocket 2.5 02:51:10 10° W 02:54:50 35° NNW 02:58:41 10° NE
CBERS-1 4.1 02:50:34 10° N 02:55:42 74° WNW 03:00:48 10° SSW
IDEFIX/ARIANE 42P 3.6 02:52:00 10° N 02:56:36 31° WNW 03:01:10 10° SW
Cosmos 1943 Rocket 4.0 02:55:00 10° WNW 02:57:16 12° W 02:59:32 10° WSW
ADEOS II 3.4 02:53:09 10° N 02:57:27 26° WNW 03:01:45 10° WSW
FENGYUN 3A 3.8 02:53:39 10° NNE 02:59:04 79° ESE 03:04:27 10° S
Gblst 52 Del rocket 4.2 02:53:52 10° WNW 02:59:33 90° WSW 03:05:03 10° ESE
Cosmos 2056 Rocket 3.6 02:59:33 10° SSW 03:04:45 87° ESE 03:10:04 10° NNE
Cosmos 1825 3.2 03:01:16 10° SSE 03:04:49 45° E 03:08:24 10° NNE
BREEZE-M DEB (TANK) 3.4 03:05:01 10° WNW 03:11:45 64° N 03:14:25 10° E
